N4NVD-13 Weather Reports


Display with metric or nautical units.
time (UTC)temp
F
wind
direction
speed
MPH
gust
MPH
rain 1hr
in
rain 24hr
in
rain mn
in
humidity
%
barometer
mb
20260509185415 88 8 0.0 3.0 0.00 0.00 0.00 75 1008.9
20260509184911 87 57 3.0 4.0 0.00 0.00 0.00 74 1008.8
20260509184409 87 208 3.0 3.0 0.00 0.00 0.00 74 1008.8
20260509183905 87 299 2.0 6.0 0.00 0.00 0.00 73 1009.1
20260509183359 87 248 3.0 5.0 0.00 0.00 0.00 75 1009.3
20260509182856 89 221 2.0 2.0 0.00 0.00 0.00 77 1009.3
20260509182353 86 110 3.0 3.0 0.00 0.00 0.00 80 1009.4
20260509181851 86 57 3.0 5.0 0.00 0.00 0.00 80 1009.1
20260509181348 85 8 2.0 3.0 0.00 0.00 0.00 82 1009.7
20260509180845 84 327 2.0 3.0 0.00 0.00 0.00 84 1009.6
20260509180340 83 282 0.0 3.0 0.00 0.00 0.00 85 1009.7
20260509175838 83 55 3.0 5.0 0.00 0.00 0.00 84 1009.9
20260509175334 85 350 3.0 3.0 0.00 0.00 0.00 82 1009.9
20260509174830 86 233 2.0 5.0 0.00 0.00 0.00 82 1010.0
20260509174326 85 0 0.0 3.0 0.00 0.00 0.00 82 1009.9
20260509173822 85 81 0.0 3.0 0.00 0.00 0.00 83 1010.0
20260509173318 84 232 2.0 4.0 0.00 0.00 0.00 83 1010.1
20260509172814 83 253 3.0 6.0 0.00 0.00 0.00 85 1010.1
20260509172311 82 243 3.0 4.0 0.00 0.00 0.00 87 1010.3
20260509171806 82 300 0.0 3.0 0.00 0.00 0.00 87 1010.2
20260509171303 81 294 2.0 3.0 0.00 0.00 0.00 88 1010.2
20260509170759 81 202 3.0 4.0 0.00 0.00 0.00 88 1010.0
20260509170255 81 225 2.0 3.0 0.00 0.00 0.00 88 1010.3
20260509165754 81 109 2.0 2.0 0.00 0.00 0.00 89 1010.1
20260509165249 80 160 0.0 2.0 0.00 0.00 0.00 90 1010.1
20260509164746 80 174 1.0 4.0 0.00 0.00 0.00 91 1010.5
20260509164242 80 221 2.0 4.0 0.00 0.00 0.00 91 1010.4
20260509163744 80 220 2.0 3.0 0.00 0.00 0.00 92 1010.2
20260509163235 80 154 3.0 3.0 0.00 0.00 0.00 91 1010.2
20260509162734 80 241 2.0 3.0 0.00 0.00 0.00 90 1010.3
20260509162228 79 157 0.0 2.0 0.00 0.00 0.00 91 1010.1
20260509161724 79 106 0.0 1.0 0.00 0.00 0.00 91 1010.0
20260509161220 79 270 1.0 3.0 0.00 0.00 0.00 92 1010.0
20260509160715 80 243 2.0 3.0 0.00 0.00 0.00 91 1010.2
20260509160212 80 82 1.0 2.0 0.00 0.00 0.00 91 1010.1
20260509155707 80 243 0.0 3.0 0.00 0.00 0.00 92 1010.2
20260509155204 79 212 3.0 5.0 0.00 0.00 0.00 92 1010.2
20260509154700 79 0 0.0 2.0 0.00 0.00 0.00 91 1010.1
20260509154157 79 352 0.0 3.0 0.00 0.00 0.00 92 1010.3
20260509153654 79 96 2.0 2.0 0.00 0.00 0.00 93 1010.4
20260509153151 78 221 4.0 4.0 0.00 0.00 0.00 92 1010.2
20260509152646 78 326 0.0 5.0 0.00 0.00 0.00 94 1010.2
20260509152144 78 312 2.0 6.0 0.00 0.00 0.00 93 1009.8
20260509151640 78 184 2.0 6.0 0.00 0.00 0.00 95 1009.6
20260509151137 77 200 3.0 8.0 0.00 0.00 0.00 97 1009.5
20260509150636 76 221 13.0 20.0 0.00 0.00 0.00 96 1009.2
20260509150133 76 173 6.0 18.0 0.00 0.00 0.00 97 1009.2
20260509145629 76 236 3.0 20.0 0.00 0.00 0.00 97 1009.0
20260509145125 76 212 5.0 16.0 0.00 0.00 0.00 97 1009.4
20260509144621 77 196 2.0 9.0 0.00 0.00 0.00 96 1009.6
20260509144119 76 220 8.0 13.0 0.00 0.00 0.00 96 1009.3
20260509143616 76 212 5.0 13.0 0.00 0.00 0.00 96 1009.3
20260509143114 76 214 5.0 12.0 0.00 0.00 0.00 97 1009.4
20260509142608 76 223 6.0 12.0 0.00 0.00 0.00 97 1009.4
20260509142105 76 164 3.0 6.0 0.00 0.00 0.00 97 1009.4
20260509141601 76 231 3.0 8.0 0.00 0.00 0.00 99 1009.6
20260509141058 75 235 8.0 8.0 0.00 0.00 0.00 99 1009.7
20260509140555 75 176 2.0 8.0 0.00 0.00 0.00 99 1009.7
20260509140053 75 166 4.0 9.0 0.00 0.00 0.00 99 1009.8
20260509135550 75 228 5.0 6.0 0.00 0.00 0.00 99 1009.7
20260509135047 74 240 3.0 6.0 0.00 0.00 0.00 99 1009.9
20260509134544 74 237 4.0 5.0 0.00 0.00 0.00 99 1009.7
20260509134042 74 233 4.0 5.0 0.00 0.00 0.00 99 1009.7
20260509133538 74 229 3.0 5.0 0.00 0.00 0.00 99 1009.8
20260509133036 73 225 2.0 5.0 0.00 0.00 0.00 99 1009.8
20260509132534 73 135 2.0 5.0 0.00 0.00 0.00 99 1010.0
20260509132032 73 148 2.0 5.0 0.00 0.00 0.00 99 1009.9
20260509131528 73 206 3.0 5.0 0.00 0.00 0.00 99 1010.0
20260509131025 73 228 4.0 4.0 0.00 0.00 0.00 99 1009.6
20260509130520 73 120 0.0 1.0 0.00 0.00 0.00 99 1009.8
20260509130018 73 117 3.0 3.0 0.00 0.00 0.00 99 1009.4
20260509125514 73 149 4.0 6.0 0.00 0.00 0.00 99 1009.5
20260509125010 73 120 2.0 3.0 0.00 0.00 0.00 99 1009.4
20260509124507 73 140 0.0 2.0 0.00 0.00 0.00 99 1009.4
20260509124004 73 251 1.0 5.0 0.00 0.00 0.00 99 1009.4
20260509123502 73 254 0.0 2.0 0.00 0.00 0.00 99 1009.5
20260509122957 73 145 0.0 2.0 0.00 0.00 0.00 99 1009.3
20260509122455 72 103 1.0 2.0 0.00 0.00 0.00 99 1009.6
20260509121951 72 74 0.0 1.0 0.00 0.00 0.00 99 1009.7
20260509121448 72 66 2.0 2.0 0.00 0.00 0.00 99 1009.5
20260509120946 72 54 0.0 2.0 0.00 0.00 0.00 99 1009.7
20260509120444 72 6 1.0 2.0 0.00 0.00 0.00 99 1009.7
20260509115942 72 56 2.0 2.0 0.00 0.00 0.00 99 1009.2
20260509115439 72 229 0.0 0.0 0.00 0.00 0.00 99 1009.4
20260509114936 72 194 1.0 2.0 0.00 0.00 0.00 99 1009.5
20260509114435 72 337 0.0 3.0 0.00 0.00 0.00 99 1009.5
20260509113934 72 248 2.0 3.0 0.00 0.00 0.00 99 1009.6
20260509113431 72 206 1.0 2.0 0.00 0.00 0.00 99 1009.4
20260509112927 72 29 0.0 2.0 0.00 0.00 0.00 99 1010.0
20260509112425 73 0 0.0 2.0 0.00 0.00 0.00 99 1010.2
20260509111921 73 270 0.0 2.0 0.00 0.00 0.00 99 1010.4
20260509111419 73 180 0.0 0.0 0.00 0.00 0.00 99 1010.5
20260509110916 73 352 0.0 3.0 0.00 0.00 0.00 99 1010.3
20260509110412 73 20 3.0 3.0 0.00 0.00 0.00 99 1010.2
20260509105910 73 12 1.0 1.0 0.00 0.00 0.00 99 1009.9
20260509105408 73 270 0.0 2.0 0.00 0.00 0.00 99 1010.1
20260509104905 73 257 0.0 1.0 0.00 0.00 0.00 99 1010.3
20260509104402 73 15 2.0 2.0 0.00 0.00 0.00 99 1010.4
20260509103859 73 352 2.0 2.0 0.00 0.00 0.00 99 1010.4
20260509103356 73 209 0.0 0.0 0.00 0.00 0.00 99 1009.9
20260509102855 73 240 0.0 1.0 0.00 0.00 0.00 99 1009.7
20260509102352 73 0 0.0 1.0 0.00 0.00 0.00 99 1009.6
20260509101847 73 54 1.0 2.0 0.00 0.00 0.00 99 1009.7
20260509101344 73 32 2.0 2.0 0.00 0.00 0.00 99 1009.3
20260509100842 73 210 2.0 4.0 0.00 0.00 0.00 99 1009.7
20260509100339 73 216 0.0 3.0 0.00 0.00 0.00 99 1009.5
20260509095836 73 66 0.0 0.0 0.00 0.00 0.00 99 1009.7
20260509095333 73 54 1.0 4.0 0.00 0.00 0.00 99 1009.8
20260509094830 73 12 2.0 3.0 0.00 0.00 0.00 99 1009.8
20260509094326 73 26 1.0 3.0 0.00 0.00 0.00 99 1009.6
20260509093824 73 63 0.0 3.0 0.00 0.00 0.00 99 1009.6
20260509093321 73 26 0.0 1.0 0.00 0.00 0.00 99 1009.2
20260509092820 73 75 1.0 2.0 0.00 0.00 0.00 99 1009.4
20260509092317 73 81 0.0 1.0 0.00 0.00 0.00 99 1009.4
20260509091815 73 18 0.0 3.0 0.00 0.00 0.00 99 1009.0
20260509091311 73 60 0.0 2.0 0.00 0.00 0.00 99 1009.1
20260509090809 73 90 0.0 2.0 0.00 0.00 0.00 99 1009.0
20260509090306 73 8 0.0 2.0 0.00 0.00 0.00 99 1009.2
20260509085803 73 26 1.0 3.0 0.00 0.00 0.00 99 1009.2
20260509085301 73 29 2.0 3.0 0.00 0.00 0.00 99 1009.4
20260509084757 73 29 0.0 2.0 0.00 0.00 0.00 99 1009.6
20260509084254 73 65 2.0 2.0 0.00 0.00 0.00 99 1009.6
20260509083752 73 15 1.0 1.0 0.00 0.00 0.00 99 1009.2
20260509083248 73 90 0.0 1.0 0.00 0.00 0.00 99 1009.8
20260509082745 73 60 0.0 1.0 0.00 0.00 0.00 99 1009.5
20260509082241 73 90 0.0 2.0 0.00 0.00 0.00 99 1009.5
20260509081738 73 66 3.0 3.0 0.00 0.00 0.00 99 1009.5
20260509081236 73 156 0.0 0.0 0.00 0.00 0.00 99 1009.6
20260509080734 73 156 0.0 3.0 0.00 0.00 0.00 99 1009.5
20260509080231 73 219 3.0 3.0 0.00 0.00 0.00 99 1009.7
20260509075729 73 221 4.0 4.0 0.00 0.00 0.00 99 1009.6
20260509075227 73 180 0.0 3.0 0.00 0.00 0.00 99 1009.6
20260509074723 73 210 2.0 2.0 0.00 0.00 0.00 99 1009.6
20260509074221 73 261 0.0 2.0 0.00 0.00 0.00 99 1009.8
20260509073717 73 60 0.0 0.0 0.00 0.00 0.00 99 1010.0
20260509073214 73 74 1.0 1.0 0.00 0.00 0.00 99 1009.7
20260509072710 73 81 0.0 2.0 0.00 0.00 0.00 99 1010.0
20260509072207 73 73 0.0 2.0 0.00 0.00 0.00 99 1009.9
20260509071704 73 114 0.0 2.0 0.00 0.00 0.00 99 1009.7
20260509071201 73 246 0.0 0.0 0.00 0.00 0.00 99 1009.9
20260509070658 73 148 0.0 0.0 0.00 0.00 0.00 99 1010.0
20260509070154 73 203 0.0 3.0 0.00 0.00 0.00 99 1010.1
20260509065650 73 236 0.0 3.0 0.00 0.00 0.00 99 1009.9
20260509065147 73 212 2.0 4.0 0.00 0.00 0.00 99 1009.7
20260509064643 73 121 2.0 5.0 0.00 0.00 0.00 99 1009.3
20260509064141 73 90 0.0 2.0 0.00 0.00 0.00 99 1009.5
20260509063638 73 157 1.0 3.0 0.00 0.00 0.00 99 1009.5
20260509063134 73 254 0.0 3.0 0.00 0.00 0.00 99 1009.8
20260509062632 73 200 0.0 2.0 0.00 0.00 0.00 99 1009.7
20260509062129 73 166 0.0 4.0 0.00 0.00 0.00 99 1009.8
20260509061626 73 99 0.0 5.0 0.00 0.00 0.00 99 1009.5
20260509061123 73 74 0.0 2.0 0.00 0.00 0.00 99 1009.7
20260509060620 73 196 2.0 3.0 0.00 0.00 0.00 99 1009.4
20260509060110 73 147 3.0 6.0 0.00 0.00 0.00 99 1009.5
20260509055606 73 155 7.0 8.0 0.00 0.00 0.00 99 1009.5
20260509055102 73 147 3.0 5.0 0.00 0.00 0.00 99 1009.7
20260509054559 73 157 3.0 4.0 0.00 0.00 0.00 99 1009.6
20260509054057 73 147 0.0 3.0 0.00 0.00 0.00 99 1009.4
20260509053555 73 203 0.0 5.0 0.00 0.00 0.00 99 1009.5
20260509053052 73 241 2.0 4.0 0.00 0.00 0.00 99 1009.3
20260509052550 73 120 2.0 3.0 0.00 0.00 0.00 99 1009.5
20260509052048 73 294 2.0 4.0 0.00 0.00 0.00 99 1009.5
20260509051545 73 147 3.0 4.0 0.00 0.00 0.00 99 1009.2
20260509051042 73 172 0.0 4.0 0.00 0.00 0.00 99 1009.3
20260509050539 73 135 2.0 5.0 0.00 0.00 0.00 99 1009.4
20260509050035 73 204 0.0 5.0 0.00 0.00 0.00 99 1009.5
20260509045533 73 90 3.0 5.0 0.00 0.00 0.00 99 1009.5
20260509045030 73 211 3.0 8.0 0.00 0.00 0.00 99 1009.3
20260509044527 73 212 2.0 5.0 0.00 0.00 0.00 99 1009.3
20260509044024 73 246 3.0 13.0 0.00 0.00 0.00 99 1009.1
20260509043521 73 166 3.0 6.0 0.00 0.00 0.00 99 1009.6
20260509043016 73 144 3.0 9.0 0.00 0.00 0.00 98 1009.5
20260509042513 74 152 4.0 13.0 0.00 0.00 0.00 98 1009.4
20260509042009 74 96 0.0 5.0 0.00 0.00 0.00 98 1009.3
20260509041506 74 204 2.0 6.0 0.00 0.00 0.00 98 1009.3
20260509041004 74 213 2.0 7.0 0.00 0.00 0.00 98 1009.1
20260509040501 74 154 6.0 8.0 0.00 0.00 0.00 97 1009.1
20260509035958 74 114 1.0 6.0 0.00 0.00 0.00 97 1008.8
20260509035455 74 225 3.0 8.0 0.00 0.00 0.00 97 1009.1
20260509034951 74 82 0.0 9.0 0.00 0.00 0.00 97 1009.1
20260509034449 74 148 0.0 10.0 0.00 0.00 0.00 97 1009.0
20260509033946 75 165 1.0 6.0 0.00 0.00 0.00 96 1009.1
20260509033443 75 206 4.0 9.0 0.00 0.00 0.00 96 1009.1
20260509032940 75 106 3.0 7.0 0.00 0.00 0.00 96 1009.2
20260509032437 75 254 1.0 6.0 0.00 0.00 0.00 96 1009.2
20260509031935 75 135 5.0 5.0 0.00 0.00 0.00 96 1009.0
20260509031432 75 108 3.0 4.0 0.00 0.00 0.00 96 1009.1
20260509030929 75 100 2.0 6.0 0.00 0.00 0.00 96 1009.1
20260509030427 75 143 2.0 4.0 0.00 0.00 0.00 96 1008.9
20260509025924 75 109 0.0 4.0 0.00 0.00 0.00 96 1008.8
20260509025420 75 81 3.0 4.0 0.00 0.00 0.00 96 1008.9
20260509024915 75 107 2.0 4.0 0.00 0.00 0.00 96 1008.9
20260509024411 75 90 0.0 4.0 0.00 0.00 0.00 95 1008.8
20260509023909 75 94 0.0 3.0 0.00 0.00 0.00 95 1008.9
20260509023406 75 90 0.0 1.0 0.00 0.00 0.00 95 1008.8
20260509022902 75 106 0.0 3.0 0.00 0.00 0.00 95 1008.9
20260509022359 75 203 0.0 1.0 0.00 0.00 0.00 96 1008.7
20260509021856 75 73 0.0 0.0 0.00 0.00 0.00 95 1008.6
20260509021353 75 73 0.0 0.0 0.00 0.00 0.00 95 1008.5
20260509020851 75 73 0.0 2.0 0.00 0.00 0.00 95 1008.6
20260509020349 75 90 1.0 2.0 0.00 0.00 0.00 95 1008.3
20260509015846 75 90 0.0 2.0 0.00 0.00 0.00 95 1008.3
20260509015344 75 83 1.0 2.0 0.00 0.00 0.00 95 1008.4
20260509014840 75 82 1.0 1.0 0.00 0.00 0.00 94 1008.5
20260509014337 75 66 0.0 1.0 0.00 0.00 0.00 94 1008.5
20260509013834 75 90 0.0 0.0 0.00 0.00 0.00 94 1008.3
20260509013331 75 66 0.0 0.0 0.00 0.00 0.00 93 1008.2
20260509012827 76 83 1.0 1.0 0.00 0.00 0.00 93 1008.3
20260509012323 76 74 0.0 1.0 0.00 0.00 0.00 93 1008.2
20260509011821 76 54 1.0 2.0 0.00 0.00 0.00 93 1008.2
20260509011318 76 23 1.0 2.0 0.00 0.00 0.00 92 1008.3
20260509010816 76 69 0.0 2.0 0.00 0.00 0.00 92 1008.3
20260509010313 76 90 1.0 2.0 0.00 0.00 0.00 92 1008.3
20260509005810 77 99 0.0 1.0 0.00 0.00 0.00 92 1008.4
20260509005308 77 105 0.0 4.0 0.00 0.00 0.00 91 1008.1
20260509004802 77 90 0.0 0.0 0.00 0.00 0.00 91 1008.3
20260509004259 77 82 0.0 2.0 0.00 0.00 0.00 91 1008.1
20260509003757 77 90 0.0 2.0 0.00 0.00 0.00 91 1008.3
20260509003254 77 90 0.0 2.0 0.00 0.00 0.00 91 1008.3
20260509002751 77 54 0.0 2.0 0.00 0.00 0.00 90 1008.2
20260509002249 77 66 0.0 4.0 0.00 0.00 0.00 90 1008.1
20260509001746 77 270 0.0 4.0 0.00 0.00 0.00 90 1008.2
20260509001242 78 78 2.0 2.0 0.00 0.00 0.00 90 1008.2
20260509000740 78 99 0.0 3.0 0.00 0.00 0.00 90 1008.5
20260509000237 78 90 1.0 3.0 0.00 0.00 0.00 90 1008.2
20260508235734 78 151 0.0 2.0 0.00 0.00 0.00 89 1008.2
20260508235230 78 106 0.0 2.0 0.00 0.00 0.00 89 1007.9
20260508234728 78 103 0.0 4.0 0.00 0.00 0.00 89 1008.2
20260508234224 78 112 2.0 3.0 0.00 0.00 0.00 88 1008.3
20260508233718 78 180 1.0 4.0 0.00 0.00 0.00 88 1008.2
20260508233216 78 77 2.0 5.0 0.00 0.00 0.00 88 1008.1
20260508232713 79 127 3.0 4.0 0.00 0.00 0.00 87 1007.9
20260508232209 79 90 1.0 7.0 0.00 0.00 0.00 87 1008.0
20260508231707 79 83 0.0 6.0 0.00 0.00 0.00 87 1007.8
20260508231203 79 114 0.0 3.0 0.00 0.00 0.00 87 1008.0
20260508230700 79 159 0.0 5.0 0.00 0.00 0.00 87 1008.1
20260508230156 79 157 1.0 5.0 0.00 0.00 0.00 87 1008.0
20260508225655 79 145 4.0 6.0 0.00 0.00 0.00 86 1008.0
20260508225150 79 90 2.0 5.0 0.00 0.00 0.00 87 1008.2
20260508224648 79 150 2.0 3.0 0.00 0.00 0.00 87 1008.0
20260508224146 79 120 1.0 5.0 0.00 0.00 0.00 88 1008.2
20260508223643 78 147 0.0 7.0 0.00 0.00 0.00 87 1008.4
20260508223141 79 155 3.0 7.0 0.00 0.00 0.00 87 1008.4
20260508222638 80 180 0.0 5.0 0.00 0.00 0.00 86 1008.3
20260508222134 79 164 2.0 6.0 0.00 0.00 0.00 87 1008.0
20260508221631 79 86 0.0 5.0 0.00 0.00 0.00 86 1007.8
20260508221126 78 144 2.0 3.0 0.00 0.00 0.00 86 1008.2
20260508220623 78 151 1.0 5.0 0.00 0.00 0.00 86 1008.5
20260508220120 79 36 0.0 5.0 0.00 0.00 0.00 86 1008.4
20260508215617 79 115 2.0 3.0 0.00 0.00 0.00 85 1008.4
20260508215113 79 63 1.0 4.0 0.00 0.00 0.00 85 1008.3
20260508214611 79 206 0.0 2.0 0.00 0.00 0.00 86 1008.3
20260508214107 79 126 0.0 3.0 0.00 0.00 0.00 86 1008.5
20260508213604 80 132 2.0 4.0 0.00 0.00 0.00 83 1008.4
20260508213100 80 32 0.0 4.0 0.00 0.00 0.00 83 1008.7
20260508212557 80 180 0.0 3.0 0.00 0.00 0.00 82 1008.8
20260508212053 81 154 0.0 4.0 0.00 0.00 0.00 81 1008.7
20260508211548 80 23 1.0 4.0 0.00 0.00 0.00 83 1008.8
20260508211045 80 74 0.0 2.0 0.00 0.00 0.00 83 1008.8
20260508210542 80 246 0.0 2.0 0.00 0.00 0.00 82 1008.9
20260508210040 79 220 2.0 4.0 0.00 0.00 0.00 85 1009.1
20260508205536 79 245 0.0 3.0 0.00 0.00 0.00 84 1009.0
20260508205033 80 153 4.0 5.0 0.00 0.00 0.00 83 1009.2
20260508204529 81 120 0.0 2.0 0.00 0.00 0.00 82 1009.2
20260508204025 80 78 3.0 3.0 0.00 0.00 0.00 83 1009.3
20260508203521 80 110 2.0 3.0 0.00 0.00 0.00 84 1009.4
20260508203018 78 195 1.0 4.0 0.00 0.00 0.00 85 1009.3
20260508202515 78 98 1.0 5.0 0.00 0.00 0.00 84 1009.4
20260508202012 78 83 1.0 3.0 0.00 0.00 0.00 85 1009.6
20260508201508 78 73 3.0 5.0 0.00 0.00 0.00 85 1009.4
20260508201005 78 157 1.0 4.0 0.00 0.00 0.00 86 1009.5
20260508200502 78 39 4.0 5.0 0.00 0.00 0.00 86 1009.8
20260508195956 78 70 2.0 4.0 0.00 0.00 0.00 85 1009.8
20260508195454 77 106 0.0 4.0 0.00 0.00 0.00 85 1009.7
20260508194950 77 97 3.0 5.0 0.00 0.00 0.00 85 1010.0
20260508194448 77 65 2.0 4.0 0.00 0.00 0.00 85 1010.1
20260508193944 78 158 3.0 4.0 0.00 0.00 0.00 83 1010.2
20260508193441 78 225 2.0 4.0 0.00 0.00 0.00 84 1009.9
20260508192938 78 65 2.0 3.0 0.00 0.00 0.00 85 1009.8
20260508192435 77 151 0.0 3.0 0.00 0.00 0.00 84 1010.1
20260508191931 78 85 4.0 5.0 0.00 0.00 0.00 86 1010.1
20260508191429 76 221 0.0 4.0 0.00 0.00 0.00 86 1010.3
20260508190925 76 63 5.0 8.0 0.00 0.00 0.00 87 1010.4
20260508190423 77 147 2.0 9.0 0.00 0.00 0.00 85 1010.4
20260508185919 77 160 0.0 4.0 0.00 0.00 0.00 85 1010.4